EHI
9 8 7 7 7 6 7 6 3 0 0 1 2 2 2 2 1 2 3 1 0 0 0 0 0 0 0 0 0 0 0 0 0 0 0 0 0 0
10 9 8 7 7 6 6 6 3 1 1 2 2 1 1 1 2 3 3 1 0 0 0 0 0 0 0 0 0 0 0 0 0 0 0 0 0 0
11 10 9 8 7 7 6 5 3 2 1 1 1 1 1 2 3 3 2 1 1 0 0 0 0 0 0 0 0 0 0 0 0 0 0 0 0 0
10 9 7 6 6 5 5 4 3 2 1 0 0 0 1 1 2 2 1 1 1 0 0 0 0 0 0 0 0 0 0 0 0 0 0 0 0 0
6 5 4 4 4 3 3 3 2 1 0 0 0 0 0 0 1 1 0 0 0 0 0 0 0 0 0 0 0 0 0 0 0 0 0 0 0 0
4 3 3 3 2 2 2 2 1 0 0 0 0 0 0 0 0 0 0 0 0 0 0 0 0 0 0 0 0 0 0 0 0 0 0 0 0 0
4 3 3 2 1 1 1 1 0 0 0 0 0 0 0 0 0 0 0 0 0 0 0 0 0 0 0 0 0 0 0 0 0 0 0 0 0 0
4 3 2 1 0 0 0 0 0 0 0 0 0 0 0 0 0 0 0 0 0 0 0 0 0 0 0 0 0 0 0 0 0 0 0 0 0 0
3 2 1 0 0 0 0 0 0 0 0 0 0 0 0 0 0 0 0 0 0 0 0 0 0 0 0 0 0 0 0 0 0 0 0 0 0 0
2 1 0 0 0 0 0 0 0 0 0 0 0 0 0 0 0 0 0 0 0 0 0 0 0 0 0 0 0 0 0 0 0 0 0 0 0 0
2 1 0 0 0 0 0 0 0 0 0 0 0 0 0 0 0 0 0 0 0 0 0 0 0 0 0 0 0 0 0 0 0 0 0 0 0 0
1 0 0 0 0 0 0 0 0 0 0 0 0 0 0 0 0 0 0 0 0 0 0 0 0 0 0 0 0 0 0 0 0 0 0 0 0 0
0 0 0 0 0 0 0 0 0 0 0 0 0 0 0 0 0 0 0 0 0 0 0 0 0 0 0 0 0 0 0 0 0 0 0 0 0 0
0 0 0 0 0 0 0 0 0 0 0 0 0 0 0 0 0 0 0 0 0 0 0 0 0 0 0 0 0 0 0 0 0 0 0 0 0 0
0 0 0 0 0 0 0 0 0 0 0 0 0 0 0 0 0 0 0 0 0 0 0 0 0 0 0 0 0 0 0 0 0 0 0 0 0 0
0 0 0 0 0 0 0 0 0 0 0 0 0 0 0 0 0 0 0 0 0 0 0 0 0 0 0 0 0 0 0 0 0 0 0 0 0 0
0 0 0 0 0 0 0 0 0 0 0 0 0 0 0 0 0 0 0 0 0 0 0 0 0 0 0 0 0 0 0 0 0 0 0 0 0 0
0 0 0 0 0 0 0 0 0 0 0 0 0 0 0 0 0 0 0 0 0 0 0 0 0 0 0 0 0 0 0 0 0 0 0 0 0 0
0 0 0 0 0 0 0 0 0 0 0 0 0 0 0 0 0 0 0 0 0 0 0 0 0 0 0 0 0 0 0 0 0 0 0 0 0 0
0 0 0 0 0 0 0 0 0 0 0 0 0 0 0 0 0 0 0 0 0 0 0 0 0 0 0 0 0 0 0 0 0 0 0 0 0 0
0 0 0 0 0 0 0 0 0 0 0 0 0 0 0 0 0 0 0 0 0 0 0 0 0 0 0 0 0 0 0 0 0 0 0 0 0 0
0 0 0 0 0 0 0 0 0 0 0 0 0 0 0 0 0 0 0 0 0 0 0 0 0 0 0 0 0 0 0 0 0 0 0 0 0 0
0 0 0 0 0 0 0 0 0 0 0 0 0 0 0 0 0 0 0 0 0 0 0 0 0 0 0 0 0 0 0 0 0 0 0 0 0 0
Wind_Speed
1 2 2 1 1 1 1 1 2 2 1 1 1 2 3 4 5 4 5 9 9 8 7 8 8 8 8 9 8 8 7 7 7 7 6 6 5 4
1 2 2 2 1 1 0 1 1 1 1 1 1 2 3 4 7 6 7 11 10 10 9 10 10 10 9 9 9 9 9 9 8 8 7 7 7 6
2 2 2 2 2 1 1 1 1 1 1 1 2 2 3 4 4 4 5 6 6 10 10 10 10 10 11 11 10 10 10 9 9 9 9 8 8 8
3 3 3 3 3 2 2 1 1 1 3 2 2 2 2 3 4 4 4 5 5 9 11 11 10 10 10 10 9 9 9 10 10 10 9 9 9 8
4 4 4 4 4 3 2 2 1 1 2 3 2 2 1 2 3 4 4 3 4 6 8 9 9 10 9 9 9 9 9 9 9 9 9 9 9 9
5 5 5 5 5 4 4 3 2 2 3 3 3 2 1 1 2 2 2 2 2 3 4 5 7 8 9 8 8 8 8 7 7 8 8 8 8 8
5 6 7 9 10 7 5 4 4 3 3 3 3 2 2 1 1 1 2 2 2 2 2 2 3 3 3 5 6 7 6 6 6 6 6 6 6 6
4 4 5 7 9 9 10 9 7 4 3 3 3 2 2 1 1 1 1 1 1 1 1 2 2 2 2 2 3 4 4 4 4 4 4 4 5 5
5 4 5 6 5 4 6 7 8 8 6 3 3 2 2 1 1 1 1 1 1 1 1 1 1 2 2 3 5 4 3 3 2 2 2 2 2 2
4 5 5 5 6 5 4 6 6 5 5 3 3 2 2 2 1 0 1 2 1 1 0 0 1 1 2 3 6 5 4 3 3 2 1 1 0 0
5 6 5 5 7 7 4 4 4 3 5 6 5 3 3 3 3 2 1 1 1 1 1 0 0 1 2 2 4 7 6 5 5 4 4 4 3 2
4 5 8 7 7 7 3 3 3 2 2 3 3 3 3 3 4 3 2 1 1 1 1 1 1 0 0 1 2 3 3 4 6 6 5 4 3 2
3 3 4 6 6 6 4 2 2 1 0 1 2 3 2 2 2 2 2 2 2 1 1 1 1 1 0 0 1 2 3 2 3 3 5 5 5 3
3 3 3 4 4 5 4 4 4 3 1 2 2 2 2 2 2 2 1 1 1 1 1 1 1 1 1 0 0 1 1 2 2 2 2 4 5 5
3 3 3 1 1 1 2 3 2 1 1 2 2 2 1 1 1 1 0 0 0 0 1 0 1 1 1 1 1 0 0 1 1 1 1 2 2 3
2 2 2 1 1 1 1 1 1 1 1 1 1 1 1 1 1 1 1 0 1 0 0 1 1 0 1 1 1 1 0 1 1 1 1 1 2 2
0 1 1 1 1 1 1 1 1 1 1 1 1 1 1 1 1 1 1 1 1 1 1 0 1 1 1 1 1 1 1 1 1 0 1 1 2 2
0 1 1 1 1 1 1 1 1 1 1 1 1 1 1 1 0 1 1 1 1 1 1 0 1 1 2 1 0 0 1 1 1 1 1 2 3 2
1 1 1 1 1 1 1 1 1 1 1 1 1 1 1 1 0 0 1 1 1 1 1 0 1 1 2 2 2 2 1 2 2 2 2 2 3 3
2 1 1 1 1 1 1 1 1 1 0 1 1 1 1 1 1 1 1 1 1 2 1 1 1 1 1 2 2 3 5 3 2 2 2 3 3 2
2 2 1 1 1 1 1 0 0 0 0 1 1 1 1 1 1 2 1 1 1 2 1 1 1 2 2 2 2 2 3 5 4 3 3 3 3 3
1 1 1 1 1 1 1 1 1 1 1 1 0 1 1 2 2 2 2 2 2 2 2 1 2 2 2 3 3 3 3 3 5 8 8 6 3 3
1 1 1 2 2 1 1 1 1 0 0 1 1 1 2 2 2 2 2 2 2 3 2 2 2 2 3 3 3 4 4 4 3 3 4 7 10 12
Wind_Direction
318 320 303 302 302 296 237 199 188 210 232 176 92 91 99 103 107 98 88 86 87 85 81 77 71 66 63 60 56 53 52 54 54 53 48 41 39 33
357 349 334 329 327 323 264 252 214 198 217 94 86 96 88 91 100 99 93 92 85 84 81 78 76 72 67 63 61 60 60 60 60 57 53 51 47 42
11 9 349 347 343 340 346 6 54 111 137 77 81 84 89 94 100 102 105 98 92 89 85 82 79 75 71 67 64 61 61 60 60 60 59 57 54 49
21 16 3 2 9 11 9 23 47 122 141 141 105 89 92 99 109 104 104 106 102 97 93 88 84 80 75 71 67 62 58 56 57 57 57 57 56 56
33 28 21 19 14 11 22 22 27 85 126 132 125 110 103 106 108 101 98 97 106 109 102 93 88 84 80 76 72 65 59 56 55 55 55 56 55 55
48 42 35 36 29 21 34 28 47 74 98 110 108 95 78 82 115 120 112 97 98 104 100 106 103 91 84 81 78 74 68 63 59 58 56 55 54 53
57 59 60 65 60 52 54 42 44 66 85 95 95 83 71 69 95 118 119 117 87 90 114 113 110 90 83 80 79 81 78 73 67 65 64 61 59 58
63 65 75 70 71 70 69 61 55 62 69 85 86 89 72 49 60 117 123 132 118 121 117 115 121 114 115 102 104 104 95 85 76 68 62 62 63 62
50 44 51 57 52 62 75 71 62 57 66 88 87 77 76 37 32 86 91 102 138 179 150 153 142 129 133 134 148 147 141 128 110 94 78 64 63 66
57 52 56 49 38 36 62 70 65 53 58 78 83 76 68 34 358 108 141 143 136 126 145 175 183 173 151 155 178 180 180 184 187 187 200 232 289 20
68 58 53 52 34 34 62 76 78 82 76 77 81 88 88 58 39 40 45 92 104 71 1 323 179 157 152 161 188 197 200 206 217 225 232 242 241 232
87 75 61 53 42 34 50 70 63 42 61 88 88 89 91 80 61 47 22 11 38 76 22 358 359 35 94 149 161 180 208 223 228 235 238 246 249 224
91 83 64 47 42 32 28 43 32 340 323 114 106 95 80 73 68 56 38 45 39 43 38 360 341 336 276 151 171 185 188 188 199 225 233 241 248 228
72 84 85 62 44 27 21 10 357 346 27 82 87 84 82 74 66 66 70 78 91 133 114 32 338 330 329 333 247 195 194 201 186 200 204 213 237 238
75 93 112 121 53 22 18 358 352 2 33 63 72 79 90 105 108 91 98 200 144 103 113 127 324 330 333 320 315 237 215 235 199 195 213 212 212 204
123 134 161 200 281 342 356 352 7 20 29 43 65 91 110 107 100 93 64 35 61 19 174 154 192 280 318 319 322 314 323 239 242 194 221 264 264 246
117 175 176 173 182 177 153 133 64 51 32 15 36 57 59 61 49 51 15 360 23 44 45 340 260 239 248 248 297 316 320 301 268 204 287 286 269 253
26 212 180 173 168 148 140 140 115 73 14 9 23 31 33 52 21 339 3 16 14 17 19 351 11 351 324 329 272 289 307 304 296 271 260 266 272 261
246 231 169 154 145 127 127 84 84 83 27 3 4 358 343 336 351 350 2 8 356 342 318 315 18 356 333 326 308 286 275 268 270 265 265 264 265 255
227 227 188 153 135 112 77 77 86 96 36 312 346 351 342 342 350 343 360 359 333 315 313 331 10 347 308 297 282 271 249 241 246 254 264 271 269 261
202 203 206 159 126 124 99 55 71 170 291 302 330 321 320 320 315 308 316 319 298 298 316 312 275 269 256 272 280 276 261 244 242 235 247 263 275 273
232 209 190 164 142 149 168 217 217 209 228 250 262 305 310 312 315 317 317 309 292 299 309 297 272 277 282 279 284 284 276 265 261 259 254 238 237 255
235 230 187 183 179 193 205 227 237 234 9 320 335 328 313 310 305 304 303 307 312 310 309 301 296 292 291 286 286 284 284 283 276 270 266 249 239 243